[[{"header":{"parameterUnit":"m.s-1","parameterCategory":1,"la1":30.2991,"la2":30.254,"lo1":-89.0895,"lo2":-89.0444,"dy":0.0017,"dx":0.0017,"nx":28,"ny":28,"refTime":"2024-12-18T09:00:00:Z","depth":0,"parameterNumber":2,"parameterNumberName":"U-component_of_WINDS"},"data":[0,0,0,0,0,0,0,0,0,0,0,0,0,0,0,0,0,0,0,0,0,0,0,0,0,0,0,0,0,0,0,0,0,0,0,0,0,0,0,0,0,0,0,0,0,0,0,0,0,0,0,0,0,0,0,0,0,0,1.564,1.5639,0,1.5611,1.561,1.561,1.5574,1.5573,1.5573,1.5572,1.554,1.554,1.554,0,0,0,0,0,0,0,0,0,0,0,0,0,1.5663,1.5662,1.564,1.5639,1.5639,1.5611,1.561,1.561,1.5574,1.5573,1.5573,1.5572,1.554,1.554,1.554,0,0,0,0,0,0,0,0,0,0,0,0,0,1.5645,1.5662,1.564,1.5618,1.5615,1.5611,1.561,1.561,1.5574,1.5573,1.5572,1.5572,1.5541,1.554,1.554,1.5554,0,0,1.5538,1.5538,0,0,0,0,0,0,0,0,1.5646,1.5644,1.5621,1.5619,1.5617,1.5595,1.5607,1.5591,1.5574,1.559,1.5572,1.5571,1.5559,1.5557,1.5553,1.5552,1.5551,1.5538,1.5538,1.5538,1.5538,0,0,0,0,0,0,0,1.5647,1.5645,1.5628,1.5621,1.5618,1.5609,1.5605,1.5604,1.5579,1.5588,1.5586,1.5583,1.5558,1.5554,1.5552,1.555,1.5538,1.5538,1.5537,1.5537,1.556,1.5561,0,0,0,0,0,0,1.5652,1.5647,1.5629,1.5627,1.563,1.5609,1.5605,1.5603,1.5579,1.5575,1.5584,1.5581,1.5555,1.5553,1.5551,1.5567,1.5538,1.5537,1.5537,1.556,1.5561,1.5562,0,0,0,0,0,0,1.5653,1.5651,1.563,1.5636,1.5633,1.561,1.5607,1.5603,1.5599,1.5576,1.5571,1.5584,1.5554,1.5552,1.5554,1.5565,1.5537,1.5537,1.5559,1.556,1.5561,1.5598,0,0,0,0,0,0,1.5654,1.5651,1.5657,1.5637,1.5633,1.5634,1.5608,1.5603,1.5598,1.5595,1.5575,1.5571,1.5554,1.5555,1.5553,1.5564,1.5536,1.5557,1.5559,1.5561,1.5595,1.56,1.5604,0,0,0,0,0,1.5654,1.5667,1.5657,1.5655,1.5639,1.5634,1.5632,1.5612,1.56,1.5605,1.559,1.5572,1.5564,1.5555,1.5553,1.5564,1.5557,1.5559,1.5561,1.5593,1.5599,1.5604,0,0,0,0,0,0,1.5688,1.5664,1.5652,1.5659,1.5649,1.5628,1.5634,1.5619,1.5611,1.5609,1.5584,1.558,1.5585,1.5574,1.5565,1.5577,1.5558,1.556,1.5583,1.5589,1.5593,1.5595,1.5536,0,0,0,0,0,1.5697,1.5695,1.5674,1.5682,1.5678,1.5657,1.5654,1.564,1.5628,1.5624,1.5609,1.5598,1.5593,1.559,1.5584,1.5594,1.5589,1.56,1.5605,1.5609,1.561,1.5615,1.562,1.5568,1.5568,1.5568,0,0,1.5713,1.57,1.5701,1.5689,1.5679,1.5678,1.5654,1.5653,1.5653,1.5623,1.5625,1.5614,1.56,1.5606,1.5608,1.5597,1.5624,1.5611,1.5614,1.5614,1.5618,1.5623,1.5627,1.557,1.5569,1.5569,0,0,1.5744,1.5734,1.574,1.5731,1.5718,1.5704,1.5705,1.5687,1.5679,1.568,1.5659,1.5657,1.5649,1.564,1.5635,1.5664,1.5647,1.5663,1.5686,1.5691,1.5695,1.5698,1.5709,1.5713,1.5665,1.5665,1.5665,0,1.5766,1.5764,1.5744,1.5746,1.5742,1.5717,1.5722,1.5715,1.57,1.5697,1.5686,1.5677,1.5666,1.567,1.5677,1.5673,1.5674,1.5664,1.5696,1.5699,1.5702,1.5712,1.5716,1.5667,1.5666,1.5666,1.5666,0,1.5793,1.5792,1.5799,1.5786,1.5782,1.5786,1.5767,1.5765,1.5752,1.5739,1.5741,1.5727,1.5719,1.5719,1.5705,1.5721,1.5715,1.5701,1.5681,1.571,1.5719,1.5722,1.567,1.5669,1.5668,1.5668,0,0,1.5842,1.582,1.5823,1.5817,1.5801,1.58,1.5803,1.5796,1.5795,1.5786,1.5788,1.5783,1.577,1.5763,1.5749,1.5753,1.5778,1.5738,1.5737,1.5746,1.5796,1.5807,1.5812,1.5767,1.5768,1.5768,1.5797,0,1.587,1.5874,1.5857,1.5865,1.5865,1.5842,1.5844,1.5835,1.5824,1.5821,1.5808,1.5805,1.5788,1.5784,1.5788,1.5774,1.5788,1.5772,1.5769,1.5769,1.5773,1.5816,1.5828,1.5855,1.58,1.5801,1.5801,0,1.5902,1.5896,1.5905,1.5889,1.5888,1.5891,1.5884,1.5882,1.5871,1.5862,1.5857,1.584,1.5842,1.5824,1.5827,1.5816,1.5814,1.5808,1.5808,1.5807,1.5787,1.5816,1.5863,1.5868,1.5807,1.5806,1.5806,0,1.5937,1.5931,1.5936,1.5932,1.5914,1.5917,1.591,1.5898,1.5895,1.5888,1.5886,1.588,1.5876,1.5872,1.5854,1.5842,1.5859,1.5839,1.5852,1.5852,1.5856,1.5856,1.5903,1.5855,1.5855,1.5855,1.5854,0,1.597,1.5976,1.5952,1.5955,1.5962,1.5942,1.5949,1.5939,1.593,1.593,1.591,1.5911,1.5888,1.5886,1.5873,1.5877,1.5875,1.5869,1.5865,1.587,1.5871,1.5868,1.5866,1.5856,1.5855,1.5855,1.5855,0,1.601,1.5994,1.5998,1.5981,1.5978,1.5983,1.5969,1.5971,1.5959,1.596,1.5959,1.5941,1.5938,1.5921,1.5913,1.5904,1.5914,1.5906,1.5918,1.5915,1.5929,1.5928,1.5977,1.5982,1.593,1.5931,1.5931,0,1.6031,1.6036,1.602,1.602,1.6014,1.6013,1.601,1.5991,1.5989,1.5978,1.5982,1.5978,1.5973,1.597,1.5956,1.5951,1.5943,1.596,1.5942,1.5948,1.5943,1.5943,1.5944,1.5964,1.5965,1.5965,1.5966,0,1.6071,1.6064,1.6061,1.6056,1.6054,1.6048,1.6042,1.6043,1.6022,1.6021,1.6018,1.6015,1.6009,1.6005,1.5998,1.599,1.5975,1.5972,1.5975,1.598,1.5987,1.5984,1.5929,1.5971,1.597,1.597,1.5969,1.5969,1.6103,1.6106,1.6096,1.6094,1.6088,1.6082,1.6084,1.6073,1.6071,1.6065,1.6054,1.6053,1.6043,1.6032,1.6026,1.6025,1.6016,1.602,1.6021,1.6022,1.6025,1.5987,1.6024,1.6024,1.6023,1.6023,1.6023,0,1.6142,1.6134,1.6133,1.6125,1.6124,1.611,1.6103,1.6103,1.6103,1.6095,1.6092,1.609,1.6086,1.6073,1.6068,1.607,1.6063,1.607,1.6069,1.6068,1.6033,1.6032,1.6076,1.6076,1.6076,1.6076,1.6076,1.6076,1.6162,1.6167,1.6158,1.6161,1.6153,1.6153,1.615,1.6146,1.6139,1.6138,1.6136,1.6127,1.6117,1.6112,1.6109,1.6105,1.6104,1.6113,1.6107,1.6075,1.607,1.6065,1.6063,1.6113,1.6113,1.6141,1.6141,1.6142]},{"header":{"parameterUnit":"m.s-1","parameterCategory":1,"la1":30.2991,"la2":30.254,"lo1":-89.0895,"lo2":-89.0444,"dy":0.0017,"dx":0.0017,"nx":28,"ny":28,"refTime":"2024-12-18T09:00:00:Z","depth":0,"parameterNumber":3,"parameterNumberName":"V-component_of_WINDS"},"data":[0,0,0,0,0,0,0,0,0,0,0,0,0,0,0,0,0,0,0,0,0,0,0,0,0,0,0,0,0,0,0,0,0,0,0,0,0,0,0,0,0,0,0,0,0,0,0,0,0,0,0,0,0,0,0,0,0,0,-4.7955,-4.7956,0,-4.8058,-4.806,-4.8061,-4.8035,-4.8032,-4.803,-4.8029,-4.8128,-4.8133,-4.8137,0,0,0,0,0,0,0,0,0,0,0,0,0,-4.7731,-4.7735,-4.7955,-4.7957,-4.7958,-4.8058,-4.806,-4.8061,-4.8035,-4.8032,-4.803,-4.8028,-4.8127,-4.8132,-4.8138,0,0,0,0,0,0,0,0,0,0,0,0,0,-4.783,-4.7737,-4.7955,-4.7957,-4.7958,-4.8058,-4.806,-4.8061,-4.8035,-4.8032,-4.8029,-4.8027,-4.8125,-4.8132,-4.8138,-4.824,0,0,-4.8159,-4.8162,0,0,0,0,0,0,0,0,-4.7825,-4.7839,-4.7955,-4.7957,-4.7959,-4.8031,-4.8017,-4.8121,-4.8036,-4.8006,-4.8029,-4.8025,-4.8098,-4.8107,-4.8132,-4.8245,-4.8249,-4.816,-4.8164,-4.8167,-4.8169,0,0,0,0,0,0,0,-4.7818,-4.7834,-4.7996,-4.7957,-4.7959,-4.7951,-4.7962,-4.8037,-4.8067,-4.8008,-4.8007,-4.802,-4.8098,-4.8126,-4.8135,-4.8251,-4.8159,-4.8165,-4.817,-4.8172,-4.8453,-4.8456,0,0,0,0,0,0,-4.7811,-4.7829,-4.7993,-4.7999,-4.7883,-4.7958,-4.797,-4.801,-4.8066,-4.8072,-4.8022,-4.8018,-4.8116,-4.8127,-4.8138,-4.8262,-4.8167,-4.8173,-4.8177,-4.845,-4.8454,-4.8457,0,0,0,0,0,0,-4.7806,-4.7825,-4.7988,-4.7913,-4.7934,-4.7965,-4.8011,-4.8014,-4.8042,-4.8077,-4.8082,-4.8045,-4.8114,-4.8128,-4.8216,-4.8265,-4.8176,-4.8182,-4.8446,-4.8451,-4.8456,-4.8509,0,0,0,0,0,0,-4.78,-4.7824,-4.7864,-4.7915,-4.7938,-4.8066,-4.8014,-4.8018,-4.8054,-4.805,-4.81,-4.8105,-4.8113,-4.8206,-4.8222,-4.8272,-4.8188,-4.8441,-4.8448,-4.8454,-4.8503,-4.8516,-4.8526,0,0,0,0,0,-4.7792,-4.7874,-4.7866,-4.7886,-4.7989,-4.8069,-4.8082,-4.809,-4.8059,-4.8098,-4.8121,-4.8104,-4.8257,-4.8215,-4.8233,-4.8286,-4.8438,-4.8446,-4.8453,-4.8498,-4.8513,-4.8526,0,0,0,0,0,0,-4.7826,-4.788,-4.7873,-4.7974,-4.8017,-4.8064,-4.8115,-4.8106,-4.8158,-4.8151,-4.8158,-4.8169,-4.8259,-4.8281,-4.8233,-4.8388,-4.8343,-4.8354,-4.837,-4.8385,-4.8396,-4.8388,-4.8193,0,0,0,0,0,-4.7845,-4.7908,-4.7951,-4.8036,-4.8059,-4.8083,-4.8118,-4.8122,-4.8166,-4.8183,-4.8212,-4.8254,-4.8312,-4.835,-4.8405,-4.8507,-4.8517,-4.8552,-4.8564,-4.8573,-4.8583,-4.8638,-4.8654,-4.8482,-4.8482,-4.8482,0,0,-4.7886,-4.7923,-4.7962,-4.8044,-4.8078,-4.8141,-4.8099,-4.8167,-4.8213,-4.8193,-4.8278,-4.8301,-4.8348,-4.8444,-4.8487,-4.8465,-4.8633,-4.8583,-4.859,-4.8594,-4.8648,-4.8664,-4.8679,-4.8487,-4.8487,-4.8486,0,0,-4.7992,-4.8027,-4.8102,-4.8137,-4.819,-4.8207,-4.8225,-4.8274,-4.8289,-4.8375,-4.8362,-4.8416,-4.8515,-4.855,-4.858,-4.8701,-4.8687,-4.8719,-4.8778,-4.8832,-4.8846,-4.8858,-4.8901,-4.8916,-4.8728,-4.8729,-4.8729,0,-4.8034,-4.8131,-4.8141,-4.8211,-4.8247,-4.8235,-4.831,-4.8344,-4.8411,-4.8436,-4.8411,-4.8536,-4.8567,-4.867,-4.87,-4.8725,-4.8745,-4.8713,-4.8844,-4.8856,-4.8867,-4.8908,-4.8924,-4.8732,-4.8732,-4.8731,-4.8731,0,-4.8181,-4.8248,-4.8302,-4.837,-4.8412,-4.8484,-4.8504,-4.8546,-4.8546,-4.8564,-4.8652,-4.8689,-4.8751,-4.8776,-4.8776,-4.888,-4.8865,-4.8842,-4.8796,-4.8887,-4.8925,-4.8941,-4.8737,-4.8736,-4.8735,-4.8734,0,0,-4.8309,-4.8384,-4.8404,-4.8435,-4.8493,-4.8544,-4.8616,-4.8679,-4.8715,-4.8762,-4.8821,-4.8906,-4.8886,-4.8921,-4.8924,-4.8972,-4.9065,-4.8943,-4.8944,-4.8964,-4.9182,-4.9199,-4.9217,-4.9057,-4.906,-4.9062,-4.9178,0,-4.842,-4.8549,-4.8561,-4.8675,-4.8737,-4.8727,-4.8789,-4.8831,-4.885,-4.8904,-4.8924,-4.8985,-4.8953,-4.8974,-4.9021,-4.9044,-4.9109,-4.9036,-4.9111,-4.9113,-4.9099,-4.9237,-4.9255,-4.9363,-4.9193,-4.9196,-4.9198,0,-4.8566,-4.8621,-4.8742,-4.8793,-4.8819,-4.8875,-4.8935,-4.8987,-4.9034,-4.9045,-4.9085,-4.9082,-4.9154,-4.9107,-4.9206,-4.9156,-4.9188,-4.9204,-4.9208,-4.9214,-4.9161,-4.9247,-4.9397,-4.9413,-4.9222,-4.922,-4.9218,0,-4.8648,-4.8751,-4.8837,-4.8864,-4.8926,-4.8966,-4.8993,-4.9037,-4.9075,-4.9126,-4.9151,-4.9209,-4.9241,-4.9286,-4.9299,-4.9263,-4.9397,-4.9351,-4.9407,-4.9407,-4.9435,-4.9433,-4.9592,-4.9456,-4.9456,-4.9456,-4.9456,0,-4.877,-4.8844,-4.8875,-4.8928,-4.9011,-4.9024,-4.9105,-4.913,-4.917,-4.9226,-4.922,-4.9273,-4.9287,-4.9342,-4.9352,-4.9433,-4.9447,-4.9457,-4.9458,-4.9457,-4.9456,-4.9477,-4.947,-4.946,-4.9459,-4.9458,-4.9458,0,-4.8875,-4.8898,-4.8992,-4.9043,-4.9058,-4.9117,-4.916,-4.9211,-4.923,-4.9301,-4.9319,-4.9348,-4.9413,-4.9431,-4.9507,-4.9514,-4.9609,-4.9604,-4.9594,-4.9594,-4.9649,-4.9643,-4.9826,-4.9851,-4.97,-4.9701,-4.9702,0,-4.8951,-4.9008,-4.9067,-4.9106,-4.9136,-4.9197,-4.9237,-4.9252,-4.9292,-4.9351,-4.9394,-4.9459,-4.9511,-4.9614,-4.9641,-4.97,-4.9696,-4.9756,-4.9704,-4.9702,-4.9696,-4.9693,-4.9698,-4.9765,-4.9767,-4.9768,-4.9769,0,-4.9083,-4.9093,-4.9151,-4.9214,-4.9262,-4.9311,-4.9358,-4.939,-4.9411,-4.9457,-4.9525,-4.9565,-4.9645,-4.9709,-4.9768,-4.9794,-4.9785,-4.9786,-4.9802,-4.9801,-4.9793,-4.9798,-4.962,-4.9781,-4.978,-4.9779,-4.9778,-4.9778,-4.9176,-4.9227,-4.9277,-4.9342,-4.938,-4.9425,-4.9475,-4.9502,-4.9559,-4.9627,-4.9632,-4.9705,-4.975,-4.983,-4.9859,-4.9915,-4.9897,-4.9921,-4.9926,-4.9932,-4.9937,-4.9785,-4.9926,-4.9926,-4.9926,-4.9925,-4.9925,0,-4.9308,-4.934,-4.94,-4.9468,-4.952,-4.951,-4.9562,-4.9605,-4.967,-4.9714,-4.9767,-4.9844,-4.9906,-4.9939,-5.0001,-5.0039,-5.0037,-5.0055,-5.0052,-5.0058,-4.9949,-4.9929,-5.0056,-5.0056,-5.0056,-5.0056,-5.0056,-5.0056,-4.9383,-4.9469,-4.9485,-4.9589,-4.962,-4.9694,-4.9725,-4.9766,-4.9801,-4.9889,-4.9942,-4.9964,-5.0003,-5.0068,-5.0124,-5.0132,-5.0155,-5.0175,-5.0181,-5.0079,-5.0065,-5.0052,-5.0034,-5.018,-5.018,-5.0284,-5.0285,-5.0286]}]]